Retour au catalogue

COSMOS 1778

GLONASS

ActifNavigationMEO
NORAD 16961·PAYLOAD·🇷🇺 Russia

Lancé Sep 16, 1986 depuis Baikonur Cosmodrome

Loading…

Prochains Passages (prochaines 24 heures)

TLE

FraisSource: Space-Track

Époque: Sep 10, 2026, 18:37 UTC

1 16961U 86071A   26253.77586404  .00000012  00000-0  00000-0 0  9997
2 16961  64.9507  69.4115 0004191 215.2303 144.0195  2.13102761311195

Suivez COSMOS 1778 en temps réel avec AllMySat

Download on the App Store